Location: Ferchesar
(52.6477°N, 12.4298°E)
Time: 16:46:25
(UTC+01:00)

Vanguard 3 - Pass Details

Date: 14 December 2021
Orbit: 508 x 3260 km, 33.3° (Epoch: 22 January)

Event Time Altitude Azimuth Distance (km) Brightness Sun altitude
Rises 22:16:23 0° 175° (S) 5,365 - -54.1°
Reaches altitude 10° 22:23:01 10° 150° (SSE) 5,008 - -54.8°
Maximum altitude 22:28:14 13° 129° (SE) 5,197 - -55.3°
Drops below altitude 10° 22:34:06 10° 109° (ESE) 5,789 - -55.9°
Sets 22:43:24 0° 87° (E) 7,164 - -56.7°
